CZ-6A DEB

Satellite information

Favourite Embed

Satellite Type and Status

DEBRISIN ORBIT

Key statistics

Satellite CZ-6A DEB at a glance.

Uptime

1027

Days in orbit

Revolutions

≈ 14.4

Per day

Orbit

SSO

Sun Synchronous Orbit

Inclination

98.6

Latest

Satellite identification and parameters

Extended collection of information and parameters for CZ-6A DEB.

Object identification

Identified? True

Debris? True

Object name: CZ-6A DEB

International designator: 2022-151X

Object number (NORAD): 54280

Object ID (CCSDS): 54280

Country: PEOPLES REPUBLIC OF CHINA (PRC)

Current information (Y/N): Y

RCS size: SMALL

Orbital parameters

Period: 100.195 minutes

Inclination: 98.6298 deg

SMA: 7145.887 km

Apoapsis: 826.876 km

Periapsis: 708.629 km

RAAN: 264.8657 deg

Eccentricy: 0.00827375

Argument of periapsis: 163.5782 deg

Mean anomaly: 196.8114 deg

Mean motion: 14.37204296 rev/day

Mean motion (dot): 0.00003743 rev/day2

B* drag term: 0.0012230429 1/REarth

Two-line elements (TLE)

Creation date: Sept. 3, 2025, 2:21 a.m.

Reference frame: TEME

Reference center: EARTH

Epoch: Sept. 2, 2025, 11:08 p.m. UTC

TLE line 0: 0 CZ-6A DEB

TLE line 1: 1 54280U 22151X 25245.96456593 .00003743 00000-0 12230-2 0 9992

TLE line 2: 2 54280 98.6298 264.8657 0082737 163.5782 196.8114 14.37204296146380

Live tracking on map

Real-time ground track for satellite CZ-6A DEB.

In-orbit conjunctions

A list of the most updated potential collisions computed for object CZ-6A DEB.

Target Orbit TCA Probability of collision Miss distance Type
SL-16 DEB LEO 2025-04-03 21:42:03 0.0001415738 51.0 (m) DEBRIS
IRIDIUM 17 LEO 2025-02-25 19:20:20 0.01221906 41.0 (m) PAYLOAD

Associated space launch

Chinese satellite reported for atmospheric/ocean/environmental/spatial parameter research purposes, details TBD.

CZ-6A DEB was lifted into orbit during the mission ‘Long March 6A | Yunhai 3’, on board a Long March 6A space rocket.

The launch took place on Nov. 11, 2022, 10:52 p.m. from Launch Complex 9A.

For more information about the launch, click the button.

Launch to space Long March 6A | Yunhai 3
Long March 6A | Yunhai 3

Agency: N/A

Status: Launch Successful

Launch date: Nov. 11, 2022, 10:52 p.m. UTC

Rocket: Long March 6A

Launch pad: Launch Complex 9A

Location: Taiyuan Satellite Launch Center, People's Republic of China

...

Latest news about this satellite

There are no fresh news available about this satellite. Check back as we update our databases every day.


Newsletter sign-up

Weekly statistics, charts and insights to help you stay on top of the space industry.